[Date Prev][Date Next][Thread Prev][Thread Next] - [Date Index][Thread Index][Author Index]

2 Line ISS Keps 6-20



ISS
1 25544U 98067A   03171.12017365  .00013999  00000-0  17751-3 0  1354
2 25544  51.6324   5.4862 0006932 274.6858 186.7165 15.59723222261469


----
Via the sarex mailing list at AMSAT.ORG courtesy of AMSAT-NA.
To unsubscribe, send "unsubscribe sarex" to Majordomo@amsat.org



AMSAT Top AMSAT Home